#timestamp,LO_Frequency,Hit,StdDev 
1520366415.5,286047003.0,N
1520366435.3,286047005.7,N
1520366455.1,286047007.2,Y
1520366475.9,286047004.8,P
1520366495.7,286047005.8,N
1520366515.5,286047005.3,N
1520366535.4,286047006.6,N
1520366555.2,286047007.1,Y
1520366575.1,286047003.9,P
1520366576.0,286047003.9,P
1520366595.8,286047002.8,P
1520366615.6,286047000.0,N
1520366635.5,286047002.4,N
1520366655.3,286046998.2,N
1520366675.1,286047000.9,N
1520366695.9,286047000.6,N
1520366715.7,286047000.8,N
1520366735.6,286047001.0,N
1520366755.4,286046998.4,N
1520366775.2,286046998.9,N
1520366795.1,286047001.2,N
1520366796.0,286047001.2,N
1520366815.8,286047001.2,N
1520366835.6,286046998.7,N
1520366855.5,286046998.9,N
1520366875.3,286046999.0,N
1520366895.2,286046998.1,N
1520366915.9,286046998.8,N
1520366935.7,286047000.6,N
1520366955.6,286047000.3,N
1520366975.4,286047001.0,N
1520366995.2,286047000.1,N
1520367015.1,286046998.6,N
1520367016.0,286046998.6,N
1520367035.8,286046999.0,N
1520367055.6,286047001.2,N
1520367075.5,286046998.9,N
1520367095.3,286046997.0,N
1520367115.2,286046996.7,N
1520367135.9,286046997.3,N
1520367155.7,286046997.9,N
1520367175.6,286046997.2,N
1520367195.4,286046997.2,N
1520367215.3,286046997.0,N
1520367235.1,286046995.6,N
1520367236.0,286046995.6,N
1520367255.8,286046994.1,Y
1520367275.7,286046993.4,P
1520367295.5,286046994.0,N
1520367315.3,286046995.6,N
1520367335.2,286046997.6,N
1520367355.0,286046995.8,N
1520367355.9,286046995.8,N
1520367375.8,286046996.3,N
1520367395.6,286046997.4,N
1520367415.4,286047000.7,N
1520367435.3,286046999.4,N
1520367455.1,286046996.5,N
1520367475.8,286046995.1,N
1520367495.7,286046995.5,N
1520367515.5,286046998.0,N
1520367535.4,286046993.7,Y
1520367555.2,286046997.9,P
1520367575.0,286046995.3,P
1520367575.9,286046995.3,P
1520367595.8,286046996.8,N
1520367615.6,286046999.1,N
1520367635.5,286046997.0,N
1520367655.3,286046997.2,N
1520367675.1,286047000.3,N
1520367695.9,286047002.8,N
1520367715.7,286046999.7,N
1520367735.5,286047000.8,N
1520367755.4,286046999.6,N
1520367775.2,286046996.9,N
1520367795.1,286046997.8,N
1520367796.0,286046997.8,N
1520367815.8,286046998.3,N
1520367835.6,286046998.2,N
1520367855.5,286047000.3,N
1520367875.3,286047000.7,N
1520367895.1,286047000.3,N
1520367915.9,286047000.7,N
1520367935.7,286046998.7,N
1520367955.6,286046996.8,N
1520367975.4,286046997.9,N
1520367995.2,286046999.3,N
1520368015.1,286046997.2,N
1520368016.0,286046997.2,N
1520368035.8,286046997.7,N
1520368055.6,286046995.0,N
1520368075.5,286046996.2,N
1520368095.3,286046995.5,N
1520368115.2,286046993.5,Y
1520368135.9,286046993.5,P
1520368155.7,286046993.5,N
1520368175.6,286046993.9,N
1520368195.4,286046998.0,N
1520368215.2,286046996.9,N
1520368235.1,286046997.1,N
1520368236.0,286046997.1,N
1520368255.8,286046996.7,N
1520368275.7,286046997.0,N
1520368295.5,286046998.9,N
1520368315.3,286046999.0,N
1520368335.2,286046999.3,N
1520368355.0,286046999.2,N
1520368355.9,286046999.2,N
1520368375.8,286046997.5,N
1520368395.6,286046995.1,N
1520368415.4,286046997.1,N
1520368435.3,286046997.3,N
1520368455.1,286046995.0,N
1520368475.9,286046993.7,Y
1520368495.7,286046998.3,P
1520368515.5,286046998.5,N
1520368535.4,286047000.8,N
1520368555.2,286046998.2,N
1520368575.0,286046999.4,N
1520368575.9,286046999.4,N
1520368595.8,286047000.3,N
1520368615.6,286046999.8,N
1520368635.5,286046999.9,N
1520368655.3,286047000.0,N
1520368675.1,286047000.3,N
1520368695.9,286047000.4,N
1520368715.7,286047001.2,N
1520368735.5,286047000.7,N
1520368755.4,286046998.1,N
1520368775.2,286047000.4,N
1520368795.1,286047000.8,N
1520368796.0,286047000.8,N
1520368815.8,286046998.9,N
1520368835.6,286046998.3,N
1520368855.5,286047000.7,N
1520368875.3,286047002.8,N
1520368895.1,286047002.8,N
1520368915.9,286047000.3,N
1520368935.7,286047000.0,N
1520368955.6,286047001.2,N
1520368975.4,286046999.4,N
1520368995.2,286046999.2,N
1520369015.1,286046998.8,N
1520369016.0,286046998.8,N
1520369035.8,286047000.3,N
1520369055.7,286046999.8,N
1520369075.5,286046999.7,N
1520369095.3,286047001.4,N
1520369115.2,286047001.3,N
1520369135.9,286047000.6,N
1520369155.7,286046998.1,N
1520369175.6,286046998.8,N
1520369195.4,286047000.9,N
1520369215.3,286046999.1,N
1520369235.1,286046998.7,N
1520369236.0,286046998.7,N
1520369255.8,286046999.5,N
1520369275.7,286046998.9,N
1520369295.5,286046998.2,N
1520369315.3,286046999.5,N
1520369335.2,286046997.5,N
1520369355.0,286046994.9,Y
1520369355.9,286046994.9,P
1520369375.8,286046997.0,N
1520369395.6,286046999.1,N
1520369415.4,286046998.2,N
1520369435.3,286046999.1,N
1520369455.1,286046999.5,N
1520369475.8,286047001.2,N
1520369495.7,286046996.9,N
1520369515.5,286046996.7,N
1520369535.4,286046996.7,N
1520369555.2,286046997.5,N
1520369575.0,286046995.4,N
1520369575.9,286046995.4,N
1520369595.8,286046999.4,N
1520369615.6,286046999.4,N
1520369635.4,286046996.7,N
1520369655.3,286046996.9,N
1520369675.1,286046998.9,N
1520369695.9,286047001.1,N
1520369715.7,286047000.9,N
1520369735.5,286046998.7,N
1520369755.4,286046997.5,N
1520369775.2,286046997.4,N
1520369795.0,286046999.1,N
1520369795.9,286046999.1,N
1520369815.8,286046998.0,N
1520369835.6,286046997.8,N
1520369855.5,286046993.4,Y
1520369875.3,286046996.8,P
1520369895.1,286046997.0,P
1520369915.9,286046996.4,P
1520369935.7,286046996.5,Y
1520369955.6,286047000.3,P
1520369975.4,286047002.3,N
1520369995.2,286047002.6,N
